This is the latest recevied weather packets stored in our database for station/object NO9B. If no packets are shown the sender has not sent any weather packets the latest 10 day(s).
| Time | Temp. | Humidity | Pressure | Rain* | Wind** | Luminosity | Snow |
|---|---|---|---|---|---|---|---|
| 1787789984 | 25.56° C | 65% | 1013.3 hPa | 0 mm | - | 4 W/m² | - |
| 1787789684 | 25.56° C | 64% | 1013 hPa | 0 mm | - | 6 W/m² | - |
| 1787789379 | 25.56° C | 64% | 1013.1 hPa | 0 mm | - | 6 W/m² | - |
| 1787789078 | 25.56° C | 64% | 1013 hPa | 0 mm | - | 7 W/m² | - |
| 1787788776 | 25.56° C | 64% | 1013 hPa | 0 mm | - | 8 W/m² | - |
| 1787788471 | 26.11° C | 63% | 1013.1 hPa | 0 mm | - | 10 W/m² | - |
| 1787788166 | 26.11° C | 64% | 1013.1 hPa | 0 mm | - | 13 W/m² | - |
| 1787787861 | 26.11° C | 61% | 1013 hPa | 0 mm | - | 13 W/m² | - |
| 1787787560 | 26.11° C | 60% | 1013.1 hPa | 0 mm | - | 15 W/m² | - |
| 1787787255 | 26.11° C | 60% | 1012.9 hPa | 0 mm | - | 17 W/m² | - |
| 1787786954 | 26.67° C | 59% | 1013.1 hPa | 0 mm | - | 18 W/m² | - |
| 1787786649 | 26.67° C | 60% | 1012.9 hPa | 0 mm | - | 16 W/m² | - |
| 1787786348 | 26.67° C | 61% | 1012.8 hPa | 0 mm | - | 17 W/m² | - |
| 1787786045 | 26.67° C | 60% | 1012.8 hPa | 0 mm | - | 20 W/m² | - |
| 1787785740 | 26.67° C | 59% | 1012.8 hPa | 0 mm | - | 23 W/m² | - |
| 1787785435 | 26.67° C | 58% | 1012.7 hPa | 0 mm | - | 22 W/m² | - |
| 1787785134 | 27.22° C | 56% | 1012.8 hPa | 0 mm | - | 21 W/m² | - |
| 1787784830 | 27.22° C | 56% | 1012.7 hPa | 0 mm | - | 24 W/m² | - |
| 1787784529 | 27.22° C | 56% | 1012.8 hPa | 0 mm | - | 25 W/m² | - |
| 1787784229 | 27.78° C | 58% | 1012.9 hPa | 0 mm | - | 30 W/m² | - |
| 1787783924 | 27.78° C | 57% | 1012.7 hPa | 0 mm | - | 30 W/m² | - |
| 1787783620 | 27.78° C | 57% | 1012.8 hPa | 0 mm | - | 43 W/m² | - |
| 1787783319 | 28.89° C | 53% | 1012.8 hPa | 0 mm | - | 52 W/m² | - |
| 1787783016 | 29.44° C | 54% | 1012.7 hPa | 0 mm | - | 95 W/m² | - |
| 1787782714 | 28.89° C | 55% | 1012.7 hPa | 0 mm | - | 166 W/m² | - |
* Rain latest hour (hover to see other rain measurements)
** Current wind speed in m/s (hover to see current wind gust speed)